{"data":{"norad_id":66211,"epoch":"2026-05-24T17:10:11.571744Z","epoch_age_seconds":99019,"freshness":"FRESH","line1":"1 66211U 25244F   26144.71541171  .00013459  00000+0  46568-3 0  9990","line2":"2 66211  53.1606 236.4805 0001274  77.9112 282.2032 15.30202005 33292","mean_motion":15.30202005,"eccentricity":0.0001274,"inclination_deg":53.1606,"raan_deg":236.4805,"arg_perigee_deg":77.9112,"mean_anomaly_deg":282.2032,"bstar":0.00046568,"rev_number":3329,"period_min":94.105222401666,"perigee_km":474.33596656631,"apogee_km":476.08219914822,"semimajor_km":6853.3460828573,"source":"CELESTRAK","updated_at":"2026-05-25T13:38:21.127266Z"}}